Terug naar catalogus

AMC-10

GE-10

ActiefCommunicatieGEO
NORAD 28154·PAYLOAD·🇱🇺 Luxembourg

Gelanceerd Feb 5, 2004 vanaf Cape Canaveral Space Force Station

Loading…

TLE

VersSource: Space-Track

Epoch: Sep 14, 2026, 11:42 UTC

1 28154U 04003A   26257.48773275 -.00000084  00000-0  00000-0 0  9995
2 28154   6.9092  67.9729 0004790 119.4363 260.2433  0.99119348 82469

Volg AMC-10 in realtime met AllMySat

Download on the App Store